Dewpoint
46 46 48 48 48 48 48 48 48 48 49 49 49 49 49 49 49 49 50 51 51 52 51 51 51 51 52 52 51 51 51 51 51 52 51 51 52 52 53 53 53 53 53 52 52 51 50 49 49 49 48 45
44 44 45 45 46 47 47 47 47 46 47 47 47 47 47 46 47 47 48 49 48 50 50 50 49 50 51 51 51 51 52 51 51 51 50 51 52 52 52 52 51 51 52 51 50 50 49 48 47 47 47 43
40 43 42 43 44 44 45 45 45 44 45 44 44 44 44 44 44 43 44 46 46 47 47 47 48 48 50 51 51 51 51 50 51 50 50 50 51 51 51 51 49 50 50 50 49 48 47 46 46 45 43 42
39 40 41 40 42 42 42 43 43 42 41 41 41 42 42 41 40 40 40 43 41 44 43 44 46 47 48 50 50 50 49 50 50 50 50 50 50 50 50 49 47 47 48 48 48 47 46 45 43 40 40 40
39 38 39 38 39 39 40 40 40 40 39 39 38 39 39 38 37 37 37 37 38 41 40 42 45 45 46 48 49 48 48 48 49 49 49 49 49 47 47 46 45 45 45 46 46 45 44 43 39 39 39 38
38 37 36 37 37 37 37 38 38 36 37 37 37 38 36 34 33 35 35 35 38 38 38 39 42 43 44 45 45 45 45 46 47 47 47 48 47 45 45 44 42 42 43 43 44 43 41 38 38 38 38 37
36 34 34 36 36 36 35 36 36 36 36 36 37 36 36 32 33 35 34 35 37 39 38 38 40 40 41 42 43 44 43 43 44 45 45 45 45 43 43 40 40 40 41 40 42 41 38 37 37 37 37 37
33 33 33 33 34 33 32 34 35 35 36 35 36 36 34 32 34 35 32 35 36 36 35 36 37 38 38 39 40 41 40 41 41 42 42 43 42 41 40 39 38 38 39 39 39 39 37 36 37 37 36 37
33 33 30 33 33 34 31 33 33 32 33 34 35 35 33 35 34 35 32 34 34 34 34 35 35 35 35 36 38 38 38 37 38 38 39 39 39 38 39 39 38 39 38 38 38 37 37 36 36 35 34 34
34 32 30 32 31 33 31 33 32 32 31 32 33 33 33 32 32 32 31 33 34 33 33 33 33 34 34 35 35 35 35 36 36 36 36 38 38 36 37 38 38 38 37 37 36 36 37 35 34 33 32 31
34 32 31 30 31 32 29 30 31 30 30 31 32 33 32 32 30 30 29 31 32 32 32 32 32 32 33 34 33 33 34 35 35 35 34 35 37 37 36 37 38 37 37 37 36 36 35 35 34 32 31 29
33 32 32 31 30 30 31 30 29 29 30 32 28 31 31 31 30 28 28 30 30 31 31 32 33 33 32 33 32 33 33 33 33 33 33 35 36 36 36 36 37 36 36 35 35 35 35 34 33 32 31 29
33 33 32 31 30 29 31 29 28 30 30 28 28 29 31 31 29 28 28 30 29 30 30 32 32 32 32 32 31 32 32 32 33 33 33 34 34 34 35 34 35 35 34 34 34 33 34 33 31 31 30 30
34 32 31 31 31 29 29 28 30 30 28 28 28 27 30 30 29 28 27 28 28 29 30 30 32 31 31 30 29 30 30 30 31 31 32 33 34 34 34 33 33 34 33 34 34 33 33 32 29 29 29 29
34 33 32 32 29 29 28 29 28 28 27 28 27 28 31 30 30 28 28 28 29 29 29 29 30 30 30 29 29 28 29 30 32 31 32 33 33 33 33 33 33 33 32 33 32 33 33 31 30 30 29 28
34 33 32 32 29 28 29 29 27 27 27 27 26 29 31 30 29 27 27 28 29 30 28 28 30 29 30 29 28 28 28 29 30 31 32 33 34 34 33 33 32 34 32 31 31 32 32 31 30 29 29 28
33 32 32 30 30 28 31 26 27 26 26 27 27 28 30 30 30 26 26 26 28 29 27 29 30 29 29 29 29 28 29 30 29 29 30 31 32 32 33 33 32 34 33 31 31 31 31 30 30 29 29 28
33 33 31 29 29 27 28 25 25 25 25 26 25 27 29 30 30 28 26 27 28 28 26 28 28 29 27 28 30 28 27 26 26 27 29 30 30 31 31 32 32 31 32 30 31 31 31 30 29 29 29 28
34 33 32 30 29 28 29 26 25 24 25 25 25 25 25 29 29 27 28 27 26 27 26 26 27 27 27 28 29 26 26 27 26 27 28 29 30 30 30 31 31 31 31 31 31 31 29 29 29 29 28 28
33 31 31 30 28 28 31 26 26 24 24 24 24 24 26 28 29 29 28 27 26 26 27 25 26 25 27 28 27 26 26 26 25 26 28 29 30 29 30 30 31 30 30 31 31 31 30 29 29 28 28 28
35 32 31 31 31 32 30 27 25 24 24 24 24 23 24 26 27 28 28 26 26 25 26 25 25 25 26 27 26 26 25 24 26 25 28 27 28 31 29 30 30 29 29 30 32 30 31 30 29 28 27 26
34 32 31 31 31 31 29 30 27 25 25 24 23 23 23 27 26 25 27 27 26 25 26 25 25 26 26 26 25 25 25 24 25 26 26 26 28 28 29 28 29 28 28 31 32 31 30 30 28 27 27 26
34 33 33 32 33 33 31 30 28 27 25 24 23 23 26 25 24 24 26 27 26 24 24 24 25 25 26 25 25 25 25 24 24 25 26 27 27 28 29 29 29 28 29 31 31 32 30 30 28 27 27 26
33 33 32 32 33 33 31 31 29 28 26 25 23 24 24 24 25 24 24 26 25 24 23 23 23 25 25 24 24 24 24 23 23 24 25 25 26 28 28 29 28 28 27 29 30 29 29 30 29 28 27 26
30 30 32 33 33 32 30 29 30 28 28 26 24 25 24 24 22 25 25 24 25 23 22 22 23 24 24 23 23 23 23 24 24 24 24 23 24 26 26 27 28 27 27 28 25 25 29 29 30 29 28 26
29 30 30 30 30 30 29 29 28 27 27 27 27 25 24 23 23 25 24 23 25 23 23 22 22 23 22 22 22 23 23 24 23 23 23 23 22 24 25 25 27 27 26 26 24 24 25 29 29 30 29 28
29 28 31 30 30 30 29 29 28 27 28 28 26 25 24 22 23 23 23 23 23 23 22 21 21 21 21 22 22 21 22 22 22 21 22 22 23 22 23 23 27 26 26 24 25 26 27 23 23 28 29 28
30 29 30 32 31 31 30 27 28 29 28 28 27 25 24 22 21 22 22 23 22 22 21 21 20 21 21 21 21 21 20 20 20 20 20 20 21 23 22 22 23 25 25 25 24 21 22 22 25 22 25 24
28 29 30 30 31 31 30 30 29 28 27 26 26 24 22 19 20 20 20 19 21 20 20 17 16 17 19 19 19 19 18 17 18 19 18 19 20 21 21 22 22 24 24 25 24 25 23 19 18 21 22 22
28 27 26 26 27 25 25 26 25 23 22 22 20 19 20 19 17 17 17 15 15 17 18 14 15 18 19 19 19 19 18 16 16 17 17 16 18 18 22 22 22 22 26 23 23 25 25 24 21 22 24 23
27 27 26 26 27 27 26 24 22 23 23 23 22 20 19 17 15 15 15 15 14 14 13 13 13 14 17 17 17 18 17 16 17 17 17 17 15 17 18 21 21 22 21 22 23 22 23 24 26 27 24 21